IZ0QWM-13 Scandriglia IT current weather conditions

sailwx.info

Wind from 187 at 6 knots gusting 12

Air temperature 24.4° C
Dewpoint 18.6° C

Last reported at 2014-Jul-25 17:48 UTC.
Time now 2014-Jul-25 18:28 UTC

Location: N 42°10' E 012°47'.
View on Google Maps.

See reports from other nearby stations

  
Tides and Currents Weather Stations Pressure Air Temp Water Temp Dewpoint Dewpoint Depression Visibility Wind Speed Wind Dir Waves Ship Positions
date/time (UTC)wind fromknots sea level pressurealtimeterstation pressurevisibilityair tempwater tempwave heightnotes
2014-Jul-25 17:48 187 6 gusting 12 24.4
2014-Jul-25 17:38 148 24.4
2014-Jul-25 17:28 149 2 gusting 12 24.4
2014-Jul-25 17:18 179 4 gusting 12 24.4
2014-Jul-25 17:08 181 24.4
2014-Jul-25 16:58 181 25.0
2014-Jul-25 16:48 224 25.0
2014-Jul-25 16:38 188 3 gusting 12 25.0
2014-Jul-25 16:28 180 3 gusting 12 25.0
2014-Jul-25 16:18 165 4 gusting 12 25.0
2014-Jul-25 16:08 180 4 gusting 12 25.0
2014-Jul-25 15:58 193 4 gusting 12 25.0
2014-Jul-25 15:48 359 25.6
2014-Jul-25 15:38 178 5 gusting 12 26.1
2014-Jul-25 15:28 199 4 gusting 11 26.1
2014-Jul-25 15:18 150 26.7
2014-Jul-25 15:08 136 27.8
2014-Jul-25 14:57 020 27.8
2014-Jul-25 14:47 217 27.8
2014-Jul-25 14:37 270 5 gusting 7 28.3
2014-Jul-25 14:27 217 28.3
2014-Jul-25 14:17 257 3 gusting 7 27.8
2014-Jul-25 14:07 186 27.8
2014-Jul-25 13:57 186 27.8
2014-Jul-25 13:47 359 28.3
2014-Jul-25 13:37 155 27.8
2014-Jul-25 13:27 198 27.2
2014-Jul-25 13:17 191 27.2
2014-Jul-25 13:07 280 4 gusting 6 27.8
2014-Jul-25 12:57 186 27.8
2014-Jul-25 12:47 179 27.8
2014-Jul-25 12:37 111 27.2
2014-Jul-25 12:27 228 26.7
2014-Jul-25 12:17 177 2 gusting 6 26.7
2014-Jul-25 12:07 195 26.7
2014-Jul-25 11:57 138 26.1
2014-Jul-25 11:47 167 26.1
2014-Jul-25 11:37 145 26.1
2014-Jul-25 11:27 173 2 gusting 6 25.6
2014-Jul-25 11:17 333 25.6
2014-Jul-25 11:07 212 25.6
2014-Jul-25 10:57 359 25.6
2014-Jul-25 10:47 211 25.6
2014-Jul-25 10:37 174 25.6
2014-Jul-25 10:27 308 25.6
2014-Jul-25 10:17 188 25.0
2014-Jul-25 10:07 294 25.0
2014-Jul-25 09:57 294 25.0
2014-Jul-25 09:47 294 24.4
2014-Jul-25 09:37 294 23.9
2014-Jul-25 09:27 290 23.9
2014-Jul-25 09:17 294 23.9
2014-Jul-25 09:07 110 23.9
2014-Jul-25 08:57 291 23.9
2014-Jul-25 08:47 233 2 gusting 4 23.3
2014-Jul-25 08:37 238 23.3
2014-Jul-25 08:27 197 22.8
2014-Jul-25 08:17 311 22.8
2014-Jul-25 08:07 318 22.8
2014-Jul-25 07:57 318 22.8
2014-Jul-25 07:47 079 22.8
2014-Jul-25 07:37 079 22.2
2014-Jul-25 07:27 079 21.7
2014-Jul-25 07:17 079 21.7
2014-Jul-25 07:07 079 21.1
2014-Jul-25 06:57 079 20.6
2014-Jul-25 06:56 079 20.0
2014-Jul-25 06:47 079 20.0
2014-Jul-25 06:46 079 19.4
2014-Jul-25 06:37 079 18.9
2014-Jul-25 06:36 079 18.9
2014-Jul-25 06:27 079 18.3
2014-Jul-25 06:26 079 18.3
2014-Jul-25 06:17 079 17.8
2014-Jul-25 06:16 079 17.8
2014-Jul-25 06:07 079 17.8
2014-Jul-25 06:06 079 17.8
2014-Jul-25 05:57 079 17.2
2014-Jul-25 05:56 079 17.2
2014-Jul-25 05:47 079 16.7
2014-Jul-25 05:46 079 16.7
2014-Jul-25 05:37 079 16.7
2014-Jul-25 05:36 079 16.7
2014-Jul-25 05:27 079 16.7
2014-Jul-25 05:26 079 16.7
2014-Jul-25 05:17 079 16.7
2014-Jul-25 05:16 079 16.7
2014-Jul-25 05:07 079 16.1
2014-Jul-25 05:06 079 16.1
2014-Jul-25 04:57 079 16.1
2014-Jul-25 04:55 079 16.1
2014-Jul-25 04:47 079 16.1
2014-Jul-25 04:45 079 16.1
2014-Jul-25 04:37 079 16.1
2014-Jul-25 04:35 079 16.1
2014-Jul-25 04:27 079 16.1
2014-Jul-25 04:25 079 16.1
2014-Jul-25 04:17 079 16.1
2014-Jul-25 04:15 079 16.1
2014-Jul-25 04:07 079 16.1
2014-Jul-25 04:05 079 16.1
2014-Jul-25 03:57 079 16.1
2014-Jul-25 03:55 079 16.1
2014-Jul-25 03:47 079 16.1
2014-Jul-25 03:45 079 16.1
2014-Jul-25 03:37 079 16.1
2014-Jul-25 03:35 079 16.1
2014-Jul-25 03:27 079 16.1
2014-Jul-25 03:25 079 16.7
2014-Jul-25 03:17 079 16.7
2014-Jul-25 03:15 079 16.7
2014-Jul-25 03:07 079 16.7
2014-Jul-25 03:05 079 16.7
2014-Jul-25 02:57 079 16.7
2014-Jul-25 02:55 079 16.7
2014-Jul-25 02:47 079 16.7
2014-Jul-25 02:45 079 16.7
2014-Jul-25 02:37 079 16.7
2014-Jul-25 02:35 079 16.7
2014-Jul-25 02:27 079 16.7
2014-Jul-25 02:25 079 16.7
2014-Jul-25 02:17 079 16.7
2014-Jul-25 02:15 079 17.2
2014-Jul-25 02:07 079 17.2
2014-Jul-25 02:05 079 17.2
2014-Jul-25 01:57 079 17.2
2014-Jul-25 01:55 079 17.2
2014-Jul-25 01:47 079 17.2
2014-Jul-25 01:45 079 17.2
2014-Jul-25 01:37 079 17.2
2014-Jul-25 01:35 079 17.2
2014-Jul-25 01:27 079 17.2
2014-Jul-25 01:25 079 17.2
2014-Jul-25 01:17 079 17.2
2014-Jul-25 01:15 075 17.2
2014-Jul-25 01:07 075 17.2
2014-Jul-25 01:05 075 17.2
2014-Jul-25 00:57 075 17.2
2014-Jul-25 00:55 075 17.2
2014-Jul-25 00:47 075 17.2
2014-Jul-25 00:45 075 17.8
2014-Jul-25 00:37 075 17.8
2014-Jul-25 00:35 075 17.8
2014-Jul-25 00:27 075 17.8
2014-Jul-25 00:25 075 17.8
2014-Jul-25 00:17 075 17.8
2014-Jul-25 00:15 075 17.8
2014-Jul-25 00:07 075 17.8
2014-Jul-25 00:05 075 17.8
2014-Jul-24 23:57 075 17.8
2014-Jul-24 23:55 075 17.8
2014-Jul-24 23:47 060 17.8
2014-Jul-24 23:45 060 17.8
2014-Jul-24 23:37 060 17.8
2014-Jul-24 23:35 060 17.8
2014-Jul-24 23:27 060 17.8
2014-Jul-24 23:25 060 17.8
2014-Jul-24 23:17 060 17.8
2014-Jul-24 23:15 060 17.8
2014-Jul-24 23:07 060 17.8
2014-Jul-24 23:05 060 17.8
2014-Jul-24 22:57 060 17.8
2014-Jul-24 22:55 060 17.8
2014-Jul-24 22:47 060 17.8
2014-Jul-24 22:45 060 17.8
2014-Jul-24 22:37 060 17.8
2014-Jul-24 22:35 060 17.8
2014-Jul-24 22:27 060 18.3
2014-Jul-24 22:25 060 18.3
2014-Jul-24 22:17 060 18.3
2014-Jul-24 22:15 060 18.3
2014-Jul-24 22:07 060 18.3
2014-Jul-24 22:05 060 18.3
2014-Jul-24 21:57 060 18.3
2014-Jul-24 21:55 060 18.3
2014-Jul-24 21:47 060 18.9
2014-Jul-24 21:44 060 18.9
2014-Jul-24 21:37 060 18.9
2014-Jul-24 21:34 060 18.9
2014-Jul-24 21:27 060 18.9
2014-Jul-24 21:24 060 18.9
2014-Jul-24 21:17 060 18.9
2014-Jul-24 21:14 060 18.9
2014-Jul-24 21:07 060 18.9
2014-Jul-24 21:04 060 19.4
2014-Jul-24 20:57 060 19.4
2014-Jul-24 20:54 060 19.4
2014-Jul-24 20:47 060 20.0
2014-Jul-24 20:44 120 20.6
2014-Jul-24 20:37 120 20.6
2014-Jul-24 20:34 120 20.6
2014-Jul-24 20:27 120 20.6
2014-Jul-24 20:24 120 20.6
2014-Jul-24 20:17 120 20.6
2014-Jul-24 20:14 120 21.1
2014-Jul-24 20:07 120 21.1
2014-Jul-24 20:04 120 21.1
2014-Jul-24 19:57 180 1 gusting 4 21.1
2014-Jul-24 19:54 143 2 gusting 5 21.1
2014-Jul-24 19:47 315 21.1
2014-Jul-24 19:44 159 21.1
2014-Jul-24 19:37 159 21.1
2014-Jul-24 19:34 159 21.1
2014-Jul-24 19:27 159 21.1
2014-Jul-24 19:24 159 21.1
2014-Jul-24 19:17 159 21.1
2014-Jul-24 19:14 159 21.1
2014-Jul-24 19:07 141 21.7
2014-Jul-24 19:04 160 6 gusting 18 21.7
2014-Jul-24 18:57 141 21.7
2014-Jul-24 18:54 198 4 gusting 18 21.7
2014-Jul-24 18:47 338 21.7
2014-Jul-24 18:44 338 21.7
2014-Jul-24 18:37 338 21.7
2014-Jul-24 18:34 338 22.2
2014-Jul-24 18:27 338 22.2
2014-Jul-24 18:24 338 22.8
2014-Jul-24 18:17 232 22.8
2014-Jul-24 18:14 232 22.8
2014-Jul-24 18:07 232 23.3
2014-Jul-24 18:04 232 2 gusting 18 23.3
2014-Jul-24 17:57 155 23.3
2014-Jul-24 17:54 180 3 gusting 18 23.3
2014-Jul-24 17:47 187 2 gusting 15 23.3
2014-Jul-24 17:44 180 5 gusting 18 23.9
2014-Jul-24 17:37 273 24.4
2014-Jul-24 17:34 273 24.4
2014-Jul-24 17:27 273 24.4
2014-Jul-24 17:24 313 2 gusting 18 24.4
2014-Jul-24 17:17 172 24.4
2014-Jul-24 17:14 153 24.4
2014-Jul-24 17:07 153 24.4
2014-Jul-24 17:04 212 4 gusting 18 24.4
2014-Jul-24 16:57 208 24.4
2014-Jul-24 16:54 179 24.4
2014-Jul-24 16:47 159 24.4
2014-Jul-24 16:44 177 5 gusting 18 25.0
2014-Jul-24 16:37 093 24.4
2014-Jul-24 16:34 236 24.4
2014-Jul-24 16:27 338 2 gusting 15 24.4
2014-Jul-24 16:24 231 24.4
2014-Jul-24 16:17 225 24.4
2014-Jul-24 16:14 300 4 gusting 18 25.0
2014-Jul-24 16:07 235 25.0
2014-Jul-24 16:04 305 25.6
2014-Jul-24 15:57 242 25.6
2014-Jul-24 15:53 310 4 gusting 18 25.6
2014-Jul-24 15:47 267 25.6
2014-Jul-24 15:43 204 1 gusting 18 25.6
2014-Jul-24 15:37 195 25.6
2014-Jul-24 15:33 218 25.6
2014-Jul-24 15:27 221 25.6
2014-Jul-24 15:23 276 2 gusting 18 25.6
2014-Jul-24 15:17 173 25.6
2014-Jul-24 15:13 177 7 gusting 18 26.1
2014-Jul-24 15:07 242 5 gusting 15 25.6
2014-Jul-24 15:03 218 25.6
2014-Jul-24 14:57 333 1 gusting 15 25.6
2014-Jul-24 14:53 292 4 gusting 18 25.6
2014-Jul-24 14:47 155 25.6
2014-Jul-24 14:43 003 3 gusting 18 25.6
2014-Jul-24 14:37 242 2 gusting 15 25.6
2014-Jul-24 14:33 279 2 gusting 18 25.0
2014-Jul-24 14:27 110 25.0
2014-Jul-24 14:23 218 4 gusting 18 24.4
2014-Jul-24 14:17 187 6 gusting 14 24.4
2014-Jul-24 14:13 163 5 gusting 16 24.4
2014-Jul-24 14:07 321 24.4
2014-Jul-24 14:03 255 4 gusting 16 25.0
2014-Jul-24 13:57 179 6 gusting 14 24.4
2014-Jul-24 13:53 207 2 gusting 16 25.0
2014-Jul-24 13:47 255 2 gusting 14 25.0
2014-Jul-24 13:43 339 0 gusting 16 25.6
2014-Jul-24 13:37 202 5 gusting 14 25.6
2014-Jul-24 13:33 216 2 gusting 16 25.6
2014-Jul-24 13:27 212 3 gusting 14 25.6
2014-Jul-24 13:23 218 3 gusting 16 25.6
2014-Jul-24 13:17 194 25.6
2014-Jul-24 13:13 204 5 gusting 16 26.1
2014-Jul-24 13:07 172 3 gusting 14 25.6
2014-Jul-24 13:03 183 2 gusting 16 25.6
2014-Jul-24 12:57 149 1 gusting 14 25.6
2014-Jul-24 12:53 104 25.0
2014-Jul-24 12:47 201 25.0
2014-Jul-24 12:43 255 24.4
2014-Jul-24 12:37 250 24.4
2014-Jul-24 12:33 173 7 gusting 14 24.4
2014-Jul-24 12:27 273 24.4
2014-Jul-24 12:23 153 23.9
2014-Jul-24 12:17 224 2 gusting 12 23.9
2014-Jul-24 12:13 180 23.9
2014-Jul-24 12:07 039 23.9
2014-Jul-24 12:03 245 2 gusting 14 23.9
2014-Jul-24 11:57 169 4 gusting 12 23.9
2014-Jul-24 11:53 211 23.9
2014-Jul-24 11:47 211 2 gusting 12 23.9
2014-Jul-24 11:43 188 5 gusting 14 23.9
2014-Jul-24 11:37 169 2 gusting 12 23.9
2014-Jul-24 11:33 069 23.3
2014-Jul-24 11:27 200 2 gusting 12 23.3
2014-Jul-24 11:23 190 5 gusting 14 22.8
2014-Jul-24 11:17 200 3 gusting 12 22.8
2014-Jul-24 11:13 163 22.8
2014-Jul-24 11:07 253 5 gusting 12 22.2
2014-Jul-24 11:03 359 3 gusting 14 22.2
2014-Jul-24 10:57 204 21.7
2014-Jul-24 10:53 174 2 gusting 14 22.2
2014-Jul-24 10:47 172 22.2
2014-Jul-24 10:43 186 5 gusting 14 22.8
2014-Jul-24 10:37 188 7 gusting 12 23.3
2014-Jul-24 10:33 359 23.9
2014-Jul-24 10:27 127 2 gusting 11 23.9
2014-Jul-24 10:23 183 5 gusting 13 24.4
2014-Jul-24 10:17 135 3 gusting 11 23.9
2014-Jul-24 10:13 184 4 gusting 13 23.9
2014-Jul-24 10:07 215 5 gusting 11 23.9
2014-Jul-24 10:03 084 23.9
2014-Jul-24 09:57 193 24.4
2014-Jul-24 09:53 159 4 gusting 13 25.0
2014-Jul-24 09:47 142 24.4
2014-Jul-24 09:43 173 24.4
2014-Jul-24 09:37 225 1 gusting 11 23.9
2014-Jul-24 09:33 245 2 gusting 13 23.9
2014-Jul-24 09:27 143 2 gusting 11 23.9
2014-Jul-24 09:23 257 23.9
2014-Jul-24 09:17 149 23.9
2014-Jul-24 09:13 183 4 gusting 13 23.3
2014-Jul-24 09:07 224 22.8
2014-Jul-24 09:03 219 22.8
2014-Jul-24 08:57 186 4 gusting 11 22.8
2014-Jul-24 08:52 128 3 gusting 13 22.8
2014-Jul-24 08:47 170 2 gusting 11 22.8
2014-Jul-24 08:42 188 2 gusting 13 22.8
2014-Jul-24 08:37 193 6 gusting 11 22.8
2014-Jul-24 08:32 199 3 gusting 13 22.8
2014-Jul-24 08:26 090 2 gusting 8 22.8
2014-Jul-24 08:22 129 4 gusting 9 22.2
2014-Jul-24 08:16 163 22.2
2014-Jul-24 08:12 174 4 gusting 9 22.2
2014-Jul-24 08:06 180 3 gusting 7 22.2
2014-Jul-24 08:02 187 6 gusting 9 22.2
2014-Jul-24 07:56 145 3 gusting 7 22.2
2014-Jul-24 07:52 174 3 gusting 9 22.2
2014-Jul-24 07:46 149 4 gusting 7 22.2
2014-Jul-24 07:42 202 2 gusting 7 22.2
2014-Jul-24 07:36 339 22.2
2014-Jul-24 07:32 339 21.7
2014-Jul-24 07:26 339 21.7
2014-Jul-24 07:22 339 21.1
2014-Jul-24 07:16 339 21.1
2014-Jul-24 07:12 295 21.1
2014-Jul-24 07:06 295 21.1
2014-Jul-24 07:02 298 21.1
2014-Jul-24 06:56 309 21.1
2014-Jul-24 06:52 309 21.1
2014-Jul-24 06:46 231 20.6
2014-Jul-24 06:42 191 20.6
2014-Jul-24 06:36 104 20.6
2014-Jul-24 06:32 170 20.0
2014-Jul-24 06:26 083 20.0
2014-Jul-24 06:22 083 20.0
2014-Jul-24 06:16 083 19.4
2014-Jul-24 06:12 083 19.4
2014-Jul-24 06:06 083 19.4
2014-Jul-24 06:02 083 18.9
2014-Jul-24 05:56 083 18.9
2014-Jul-24 05:52 083 18.9
2014-Jul-24 05:46 083 18.3
2014-Jul-24 04:46 041 17.8
2014-Jul-24 04:42 041 17.8
2014-Jul-24 04:36 041 17.2
2014-Jul-24 04:32 041 17.2
2014-Jul-24 04:26 041 17.2
2014-Jul-24 04:22 041 17.2
2014-Jul-24 04:16 041 17.2
2014-Jul-24 04:12 041 17.2
2014-Jul-24 04:06 041 17.2
2014-Jul-24 04:02 041 17.2
2014-Jul-24 03:56 041 17.2
2014-Jul-24 03:52 041 17.8
2014-Jul-24 03:46 041 17.8
2014-Jul-24 03:42 041 17.8
2014-Jul-24 03:36 041 17.8
2014-Jul-24 03:32 041 17.8
2014-Jul-24 03:26 041 17.2
2014-Jul-24 03:22 041 17.2
2014-Jul-24 03:16 041 17.2
2014-Jul-24 03:12 041 17.2
2014-Jul-24 03:06 041 17.2
2014-Jul-24 03:02 041 17.2
2014-Jul-24 02:56 041 17.2
2014-Jul-24 02:52 041 17.2
2014-Jul-24 02:46 041 17.8
2014-Jul-24 02:42 041 17.8
2014-Jul-24 02:36 041 17.8
2014-Jul-24 02:32 041 17.8
2014-Jul-24 02:26 041 17.8
2014-Jul-24 02:22 041 18.3
2014-Jul-24 02:16 041 18.3
2014-Jul-24 02:12 041 18.3
2014-Jul-24 02:06 041 18.3
2014-Jul-24 02:02 041 18.3
2014-Jul-24 01:56 041 18.3
2014-Jul-24 01:52 041 18.3
2014-Jul-24 01:46 041 18.3
2014-Jul-24 01:42 041 18.3
2014-Jul-24 01:36 041 18.3
2014-Jul-24 01:32 041 18.3
2014-Jul-24 01:26 041 18.3
2014-Jul-24 01:21 041 18.3
2014-Jul-24 01:16 041 18.3
2014-Jul-24 01:11 041 18.3
2014-Jul-24 01:06 041 18.3
2014-Jul-24 01:01 041 18.3
2014-Jul-24 00:56 041 18.3
2014-Jul-24 00:51 041 18.3
2014-Jul-24 00:46 041 18.3
2014-Jul-24 00:41 041 18.3
2014-Jul-24 00:36 041 18.3
2014-Jul-24 00:31 068 18.3
2014-Jul-24 00:26 037 18.3
2014-Jul-24 00:21 037 18.3
2014-Jul-24 00:16 037 18.3
2014-Jul-24 00:11 037 18.3
2014-Jul-24 00:06 037 18.3
2014-Jul-24 00:01 037 18.3
2014-Jul-23 23:56 037 18.3
2014-Jul-23 23:51 037 18.3
2014-Jul-23 23:46 037 18.3
2014-Jul-23 23:41 037 18.3
2014-Jul-23 23:36 037 18.3
2014-Jul-23 23:31 037 18.9
2014-Jul-23 23:26 037 18.9
2014-Jul-23 23:21 037 18.9
2014-Jul-23 23:16 037 18.9
2014-Jul-23 23:11 037 18.9
2014-Jul-23 23:06 100 18.3
2014-Jul-23 23:01 100 18.9
2014-Jul-23 22:56 100 18.9
2014-Jul-23 22:51 100 18.9
2014-Jul-23 22:46 158 18.9
2014-Jul-23 22:41 158 18.9
2014-Jul-23 22:36 158 18.9
2014-Jul-23 22:31 158 18.9
2014-Jul-23 22:26 158 18.9
2014-Jul-23 22:21 158 18.9
2014-Jul-23 22:16 158 19.4
2014-Jul-23 22:11 158 19.4
2014-Jul-23 22:06 158 19.4
2014-Jul-23 22:01 158 19.4
2014-Jul-23 21:56 158 20.0
2014-Jul-23 21:51 158 20.0
2014-Jul-23 21:46 158 20.0
2014-Jul-23 21:41 158 20.0
2014-Jul-23 21:36 158 20.0
2014-Jul-23 21:31 158 20.0
2014-Jul-23 21:26 158 19.4
2014-Jul-23 21:21 158 20.0
2014-Jul-23 21:16 158 20.0
2014-Jul-23 21:11 158 20.0
2014-Jul-23 21:06 158 20.0
2014-Jul-23 21:01 158 20.6
2014-Jul-23 20:56 158 20.6
2014-Jul-23 20:51 158 20.6
2014-Jul-23 20:46 158 20.6
2014-Jul-23 20:41 158 21.1
2014-Jul-23 20:36 158 20.6
2014-Jul-23 20:31 158 20.6
2014-Jul-23 20:26 158 20.6
2014-Jul-23 20:21 158 21.1
2014-Jul-23 20:16 158 21.1
2014-Jul-23 20:11 158 21.1
2014-Jul-23 20:06 158 21.1
2014-Jul-23 20:01 158 21.1
2014-Jul-23 19:51 158 21.7
2014-Jul-23 19:41 158 22.2
2014-Jul-23 19:31 158 22.8
2014-Jul-23 19:21 158 23.3
2014-Jul-23 19:11 158 23.3
2014-Jul-23 19:01 158 23.9
2014-Jul-23 18:51 180 23.9
2014-Jul-23 18:41 176 5 gusting 9 23.9
2014-Jul-23 18:31 167 4 gusting 9 24.4
2014-Jul-23 18:21 183 6 gusting 9 24.4
2014-Jul-23 18:11 135 25.0
2014-Jul-23 18:00 359 25.0